SL-19 DEB, 23491

Orbit data source: Space-Track

SL-19 DEB, 23491 is space debris in LEO originally from a launch on Mon, 26 Dec 1994 UTC launched from the Tyuratam Missile And Space Complex (TTMTR). Debris objects in space refer to the collection of defunct objects orbiting the Earth. Examples of debris include non-operational satellites, rocket bodies, and fragments generated from explosions, collisions, or faulty payload assembly.

Loading next visibility...
Identifier
23491, 1994-085P
Orbit
LEO
Country
Flag of CISCIS
Related business
Manufacturer
Unknown
Mission
Spacecraft
Bus & Motor
Unknown
Mass
Unknown
Launch date (UTC)
1994-12-26 (31 years ago)
Launch vehicle
Unknown
Launch site
Tyuratam Missile And Space Complex (TTMTR)
Object type
Payload
Rocket body
Debris
Shape & HBR
Unknown shape, 0.2 m
Radar Cross Section
Medium (>0.1 m² and <1 m²)

Expand to show TLE details & history
Last TLE update: 17 hours ago

TLE from 17 hours ago
0 SL-19 DEB
1 23491U 94085P   25309.81886700  .00010499  00000-0  24487+0 0  9999
2 23491  64.8196  56.8474 0328220 266.7447 275.4482 11.36643449278046
Epoch: 2025-11-05T19:39Z
TLE epoch observation values (Epoch: 2025-11-05T19:39:10.108Z)
Latitude
1.33737°
Longitude
-103.85675°
Altitude
1,962.051 km
Speed
6.922 km/s
True Right ascension
15h 44m 53s
True Declination
1° 19' 50"
Sunlit
Object was in daylight at epoch
Visualization orbit readout
Latitude
Unknown
Longitude
Unknown
Altitude
Unknown
Speed
Unknown
Apparent Right ascension
Unknown
Apparent Declination
Unknown
Sunlit
N/A
Visualization observer readout
Local Sidereal Time
08:13:44
Azimuth
Unknown
Elevation
Unknown
Doppler factor
Unknown
Orbital elements
Apogee altitude
2,250.63 km
Perigee altitude
1,702.203 km
Semi-major axis
8,354.554 km
Eccentricity
0.03282
Inclination
64.8196°
RAAN
56.8474°
Arg. of periapsis
266.7447°
True anomaly
271.69212°
Mean anomaly
275.4482°
Eccentric anomaly
273.57129°
Mean motion
2.84222 °/min
Orbital period
126.66 mins
BSTAR
0.24487
Loading maneuver chart data...
Computing Atmospheric mass density...
Loading historical data...
Loading historical data...
Loading historical data...
Loading historical data...
Loading historical data...
Loading historical data...
Loading historical data...

Documentation

Showing up to 5 results
|